CZ-2C R/B, 43610

Orbit data source: Space-Track

CZ-2C R/B, 43610 is space debris in SSO originally from a launch on Fri, 07 Sep 2018 UTC launched from the Taiyaun Space Center, China (TSC). Debris objects in space refer to the collection of defunct objects orbiting the Earth. Examples of debris include non-operational satellites, rocket bodies, and fragments generated from explosions, collisions, or faulty payload assembly.

Loading next visibility...
Identifier
43610, 2018-068B
Orbit
SSO
Country
Flag of CNCN / PRC
Related business
Manufacturer
CALT
Mission
Spacecraft
Bus & Motor
CZ-2 STAGE 2, Unknown motor
Mass
~3,800 kg wet, ~3,800 kg dry
Launch date (UTC)
2018-09-07 (7 years ago)
Launch vehicle
Unknown
Launch site
Taiyaun Space Center, China (TSC)
Object type
Payload
Rocket body
Debris
Shape & HBR
Cyl, 3.7 m
Radar Cross Section
23.715 m², Large (>1 m²)

Expand to show TLE details & history
Last TLE update: 20 hours ago

TLE from 20 hours ago
0 CZ-2C R/B
1 43610U 18068B   25348.79881688  .00000598  00000-0  13978-3 0  9997
2 43610  98.7256 180.6051 0086471 192.5133 167.3917 14.56448962386059
Epoch: 2025-12-14T19:10Z
TLE epoch observation values (Epoch: 2025-12-14T19:10:17.778Z)
Latitude
-0.00005°
Longitude
169.32447°
Altitude
767.433 km
Speed
7.439 km/s
True Right ascension
12h 02m 25s
True Declination
0° 00' 00"
Sunlit
Object was in daylight at epoch
Visualization orbit readout
Latitude
Unknown
Longitude
Unknown
Altitude
Unknown
Speed
Unknown
Apparent Right ascension
Unknown
Apparent Declination
Unknown
Sunlit
N/A
Visualization observer readout
Local Sidereal Time
13:21:46
Azimuth
Unknown
Elevation
Unknown
Doppler factor
Unknown
Orbital elements
Apogee altitude
762.994 km
Perigee altitude
640.553 km
Semi-major axis
7,079.911 km
Eccentricity
0.00865
Inclination
98.7256°
RAAN
180.6051°
Arg. of periapsis
192.5133°
True anomaly
167.60574°
Mean anomaly
167.3917°
Eccentric anomaly
167.49894°
Mean motion
3.64336 °/min
Orbital period
98.81 mins
BSTAR
0.00013978
Loading maneuver chart data...
Computing Atmospheric mass density...
Loading historical data...
Loading historical data...
Loading historical data...
Loading historical data...
Loading historical data...
Loading historical data...
Loading historical data...
Other satellites on launch #68 in the year 2018 (2018-09-07 UTC)

Documentation

Showing up to 5 results
|